Location: Grange Verzio
(44.5000°N, 6.9833°E)
Time: 18:02:02
(UTC+00:00)

NOSS 2-1 (C) - Pass Details

Date: 01 February 2023
Orbit: 403 x 1774 km, 63.3° (Epoch: 27 March)

Event Time Altitude Azimuth Distance (km) Brightness Sun altitude
Rises 17:24:34 0° 320° (NW) 2,766 7.2 -8.2°
Reaches altitude 10° 17:26:30 10° 319° (NW) 1,997 6.5 -8.5°
Maximum altitude 17:30:59 74° 234° (SW) 810 4.3 -9.3°
Drops below altitude 10° 17:37:23 10° 151° (SSE) 2,819 6.8 -10.4°
Sets 17:40:31 0° 150° (SSE) 4,010 7.5 -10.9°
